15 daagse weersverwachting Kokkola (FI)

  • Overzicht
  • Per uur
  • 15 dagen
  • Extra
  • Vergelijk
  • Kaarten
  • Dagkaart
  • Meer »
  • Info
  • Statistieken
  • Directe link
    Temp 6h Neerslag Wind  
 04:08     23:03    Daglengte: 18:55 Vandaag
21:00
22°
10.7 mm
2
warningclass
 04:11     23:00    Daglengte: 18:49 Morgen
03:00
20°
 
1
09:00
21°
 
3
15:00
24°
3.3 mm
4
warningclass
21:00
22°
13.7 mm
4
 04:14     22:57    Daglengte: 18:43 Maandag 23 Jul
03:00
19°
 
4
09:00
22°
 
4
15:00
26°
 
4
21:00
25°
 
3
 04:17     22:54    Daglengte: 18:37 Dinsdag 24 Jul
03:00
20°
 
1
09:00
23°
 
1
15:00
26°
 
3
Locatie info
Region: Keski-Pohjanmaa
Latitude: 63.8385°N
Longitude: 23.1300°E
9 masl
Postcode: 67100
Temp/Neerslag /Baro Onweer/Dauwpunt
    Temp Baro 1h Neerslag Dauwpunt Wind UV Bewolking  
 04:08     23:03    Daglengte: 18:55 Vandaag
17:00
25°
1004.5 hPa
48%
19.6°
2
Windvlaag: 5.7 km/h
50%
18:00
24°
1004.2 hPa 3.7 mm
74%
19.4°
2
Windvlaag: 5.4 km/h
59% warningclass
19:00
23°
1004.1 hPa 3.8 mm
78%
19.2°
2
Windvlaag: 6 km/h
66% warningclass
20:00
23°
1004.0 hPa
76%
19.1°
2
Windvlaag: 5.1 km/h
69%
21:00
22°
1003.9 hPa 3.3 mm
80%
19.2°
2
Windvlaag: 4.8 km/h
65% warningclass
22:00
22°
1003.8 hPa
72%
19.0°
2
Windvlaag: 4.9 km/h
78%
23:00
21°
1003.7 hPa
56%
18.9°
2
Windvlaag: 5.4 km/h
54%
 04:11     23:00    Daglengte: 18:49 Morgen
00:00
20°
1003.6 hPa
20%
18.8°
2
Windvlaag: 4 km/h
57%
01:00
20°
1003.4 hPa
31%
18.8°
2
Windvlaag: 3.6 km/h
39%
02:00
20°
1003.2 hPa
75%
18.8°
2
Windvlaag: 4.2 km/h
42%
03:00
20°
1003.2 hPa
69%
18.9°
1
Windvlaag: 4 km/h
42%
04:00
19°
1003.1 hPa
25%
18.8°
2
Windvlaag: 3.4 km/h
46%
05:00
19°
1003.0 hPa
15%
18.7°
2
Windvlaag: 3.4 km/h
62%
06:00
19°
1003.1 hPa
22%
18.7°
2
Windvlaag: 3.9 km/h
70%
07:00
20°
1003.0 hPa
15%
18.9°
2
Windvlaag: 4.5 km/h
74%
08:00
20°
1003.1 hPa
23%
19.0°
3
Windvlaag: 5.6 km/h
74%
09:00
21°
1003.3 hPa
75%
19.2°
3
Windvlaag: 6.3 km/h
72%
10:00
21°
1003.5 hPa
76%
19.5°
3
Windvlaag: 6.5 km/h
60%
11:00
22°
1003.6 hPa
75%
19.3°
3
Windvlaag: 6.3 km/h
49%
12:00
22°
1003.7 hPa
78%
17.9°
4
Windvlaag: 6.9 km/h
39%
13:00
23°
1003.7 hPa
78%
17.8°
4
Windvlaag: 7.1 km/h
40%
14:00
23°
1003.9 hPa
80%
17.7°
4
Windvlaag: 7.2 km/h
34%
15:00
24°
1004.2 hPa 3.3 mm
82%
16.5°
4
Windvlaag: 9.1 km/h
54% warningclass
16:00
24°
1004.4 hPa
79%
16.3°
4
Windvlaag: 9.5 km/h
46%
17:00
24°
1004.4 hPa 3.4 mm
76%
16.1°
5
Windvlaag: 9.4 km/h
37% warningclass
18:00
24°
1004.4 hPa 3.4 mm
82%
14.7°
4
Windvlaag: 9.5 km/h
34% warningclass
19:00
23°
1004.5 hPa 3.5 mm
82%
14.8°
4
Windvlaag: 9.7 km/h
38%
20:00
23°
1004.7 hPa
79%
15.3°
4
Windvlaag: 9.9 km/h
17%
21:00
22°
1005.0 hPa 3.4 mm
82%
15.6°
4
Windvlaag: 9.1 km/h
18%
22:00
21°
1005.4 hPa
37%
16.0°
4
Windvlaag: 8.7 km/h
30%
23:00
20°
1005.7 hPa
58%
16.4°
4
Windvlaag: 8.2 km/h
36%
 04:14     22:57    Daglengte: 18:43 Maandag 23 Jul
00:00
19°
1006.1 hPa
34%
16.5°
4
Windvlaag: 7.1 km/h
59%
01:00
19°
1006.3 hPa
82%
16.6°
4
Windvlaag: 6.9 km/h
57%
02:00
19°
1006.6 hPa
82%
16.7°
4
Windvlaag: 7.5 km/h
69% warningclass
03:00
19°
1006.7 hPa
82%
17.0°
4
Windvlaag: 7.1 km/h
57%
04:00
19°
1006.8 hPa
82%
17.3°
4
Windvlaag: 6.8 km/h
69% warningclass
05:00
18°
1006.9 hPa
82%
16.9°
3
Windvlaag: 7.2 km/h
69%
06:00
19°
1007.1 hPa
32%
17.0°
3
Windvlaag: 6.1 km/h
46%
07:00
19°
1007.4 hPa
14%
17.2°
4
Windvlaag: 6.4 km/h
59%
08:00
20°
1007.7 hPa
14%
17.2°
3
Windvlaag: 6.4 km/h
23%
09:00
22°
1008.0 hPa
14%
16.8°
4
Windvlaag: 6.6 km/h
10%
10:00
23°
1008.3 hPa
14%
16.0°
3
Windvlaag: 6.7 km/h
12%
11:00
24°
1008.7 hPa
14%
15.3°
3
Windvlaag: 6.6 km/h
25%
12:00
25°
1009.1 hPa
21%
12.4°
4
Windvlaag: 6.5 km/h
28%
13:00
26°
1009.4 hPa
21%
11.8°
4
Windvlaag: 6.1 km/h
14%
14:00
26°
1009.7 hPa
21%
11.8°
4
Windvlaag: 5.8 km/h
9%
15:00
26°
1009.9 hPa
21%
11.1°
4
Windvlaag: 5.5 km/h
15%
16:00
26°
Voelt als: 26.3°
1010.0 hPa
21%
11.0°
3
Windvlaag: 5.2 km/h
15%
17:00
27°
1010.0 hPa
21%
12.3°
3
Windvlaag: 4.9 km/h
15%
18:00
26°
1010.2 hPa
21%
13.1°
2
Windvlaag: 4.5 km/h
15%
19:00
26°
1010.5 hPa
21%
13.8°
2
Windvlaag: 4.2 km/h
9%
20:00
25°
1010.8 hPa
21%
13.2°
3
Windvlaag: 4 km/h
19%
21:00
25°
1011.1 hPa
21%
13.1°
3
Windvlaag: 3.7 km/h
30%
22:00
23°
1011.7 hPa
21%
14.3°
2
Windvlaag: 3.2 km/h
47%
23:00
22°
1012.3 hPa
21%
14.1°
1
Windvlaag: 2.1 km/h
64%
 04:17     22:54    Daglengte: 18:37 Dinsdag 24 Jul
00:00
22°
1012.6 hPa
21%
14.2°
1
Windvlaag: 1.5 km/h
57%
01:00
21°
1012.7 hPa
21%
13.7°
1
Windvlaag: 1.6 km/h
53%
02:00
20°
1012.8 hPa
21%
13.1°
1
Windvlaag: 1.5 km/h
44%
03:00
20°
1012.8 hPa
21%
13.5°
1
Windvlaag: 1.5 km/h
23%
04:00
18°
1012.4 hPa
21%
14.5°
1
Windvlaag: 0.4 km/h
24%
05:00
18°
1012.5 hPa
21%
14.5°
1
Windvlaag: 0.4 km/h
33%
06:00
18°
1012.5 hPa
21%
14.8°
1
Windvlaag: 0.4 km/h
32%
07:00
20°
1012.6 hPa
21%
15.5°
1
Windvlaag: 0.5 km/h
40%
08:00
21°
1012.8 hPa
21%
14.8°
1
Windvlaag: 1.1 km/h
26%
09:00
23°
1013.0 hPa
21%
14.6°
1
Windvlaag: 1.5 km/h
38%
10:00
23°
1013.0 hPa
21%
14.2°
1
Windvlaag: 1.5 km/h
27%
11:00
24°
1013.0 hPa
21%
14.4°
2
Windvlaag: 1.1 km/h
9%
12:00
25°
1013.0 hPa
21%
14.7°
2
Windvlaag: 1.9 km/h
11%
13:00
25°
1013.0 hPa
21%
15.1°
2
Windvlaag: 2.8 km/h
9%
14:00
25°
1013.0 hPa
23%
15.5°
3
Windvlaag: 3.7 km/h
10%
15:00
26°
1012.9 hPa
34%
16.1°
3
Windvlaag: 0.6 km/h
11%
16:00
26°
1012.8 hPa   16.0°
3
Windvlaag: 0 km/h
15%
Temp/Neerslag /Baro Onweer/Dauwpunt
    Temp Baro Neerslag Dauwpunt Wind Bewolking  
 04:08     23:03    Daglengte: 18:55 Vandaag
18:00
24°
1004.2 hPa 3.7 mm 19.4°
2
59% warningclass
21:00
22°
1003.9 hPa 7.0 mm 19.2°
2
65% warningclass
 04:11     23:00    Daglengte: 18:49 Morgen
00:00
20°
1003.6 hPa   18.8°
2
57%
03:00
20°
1003.2 hPa   18.9°
1
42%
06:00
19°
1003.1 hPa   18.7°
2
70%
09:00
21°
1003.3 hPa   19.2°
3
72%
12:00
22°
1003.7 hPa   17.9°
4
39%
15:00
24°
1004.2 hPa 3.3 mm 16.5°
4
54% warningclass
18:00
24°
1004.4 hPa 6.8 mm 14.7°
4
34% warningclass
21:00
22°
1005.0 hPa 6.9 mm 15.6°
4
18%
 04:14     22:57    Daglengte: 18:43 Maandag 23 Jul
00:00
19°
1006.1 hPa   16.5°
4
59%
03:00
19°
1006.7 hPa   17.0°
4
57%
06:00
19°
1007.1 hPa   17.0°
3
46%
09:00
22°
1008.0 hPa   16.8°
4
10%
12:00
25°
1009.1 hPa   12.4°
4
28%
15:00
26°
1009.9 hPa   11.1°
4
15%
18:00
26°
1010.2 hPa   13.1°
2
15%
21:00
25°
1011.1 hPa   13.1°
3
30%
 04:17     22:54    Daglengte: 18:37 Dinsdag 24 Jul
00:00
22°
1012.6 hPa   14.2°
1
57%
03:00
20°
1012.8 hPa   13.5°
1
23%
06:00
18°
1012.5 hPa   14.8°
1
32%
09:00
23°
1013.0 hPa   14.6°
1
38%
12:00
25°
1013.0 hPa   14.7°
2
11%
15:00
26°
1012.9 hPa   16.1°
3
11%
18:00
24°
1013.0 hPa   15.8°
3
7%
21:00
23°
1013.1 hPa   16.1°
2
1%
 04:20     22:51    Daglengte: 18:31 Woensdag 25 Jul
00:00
21°
1013.9 hPa   16.2°
2
0%
03:00
19°
1014.5 hPa   16.0°
2
0%
06:00
21°
1015.1 hPa   15.6°
1
10%
09:00
23°
1015.6 hPa   14.5°
0
20%
12:00
25°
1015.5 hPa   14.5°
2
38%
15:00
27°
1015.3 hPa   14.5°
3
56%
18:00
25°
1015.7 hPa   14.8°
2
51%
21:00
24°
1016.2 hPa   15.2°
1
47%
 04:23     22:47    Daglengte: 18:24 Donderdag 26 Jul
00:00
21°
1016.8 hPa   14.6°
1
32%
03:00
19°
1017.3 hPa   13.8°
2
18%
06:00
22°
1018.0 hPa   16.0°
1
32%
09:00
24°
1018.7 hPa   18.1°
1
45%
12:00
27°
1018.7 hPa   17.7°
2
43%
15:00
29°
1018.8 hPa   16.9°
4
41%
18:00
26°
1019.4 hPa   17.2°
3
25%
21:00
24°
1019.9 hPa   17.1°
2
10%
 04:26     22:44    Daglengte: 18:18 Vrijdag 27 Jul
00:00
22°
1020.7 hPa   17.3°
2
9%
03:00
20°
1021.5 hPa   17.2°
2
9%
06:00
23°
1022.0 hPa   18.4°
1
7%
09:00
26°
1022.5 hPa   19.1°
1
5%
12:00
27°
1022.5 hPa   18.9°
2
25%
15:00
28°
1022.6 hPa   18.7°
3
45%
18:00
27°
1022.5 hPa   19.8°
3
63%
21:00
26°
1022.4 hPa   20.7°
2
82%
 04:29     22:41    Daglengte: 18:12 Zaterdag 28 Jul
00:00
24°
1022.7 hPa   20.6°
2
46%
03:00
22°
1023.0 hPa   20.4°
3
11%
06:00
23°
1022.8 hPa   19.8°
3
7%
09:00
26°
1022.6 hPa   18.5°
3
3%
12:00
26°
1022.4 hPa   19.7°
3
46%
15:00
25°
1022.1 hPa 0.1 mm 21.0°
3
90%
21:00
23°
1020.9 hPa 5.1 mm 20.5°
4
91%
 04:32     22:38    Daglengte: 18:06 Zondag 29 Jul
03:00
20°
1020.4 hPa   19.4°
4
85%
09:00
22°
1020.5 hPa   19.0°
3
90%
15:00
26°
1020.0 hPa   19.1°
4
12%
21:00
23°
1021.2 hPa   19.3°
2
5%
 04:35     22:35    Daglengte: 18:00 Maandag 30 Jul
03:00
19°
1021.8 hPa 1.0 mm 19.1°
3
62%
09:00
23°
1022.0 hPa 12.6 mm 19.4°
2
87%
15:00
25°
1021.7 hPa   19.6°
2
22%
21:00
22°
1020.9 hPa   19.1°
2
15%
 04:38     22:32    Daglengte: 17:54 Dinsdag 31 Jul
03:00
18°
1020.9 hPa   18.2°
1
92%
09:00
20°
1025.2 hPa   15.5°
1
1%
15:00
24°
1022.1 hPa 0.4 mm 13.7°
2
20%
21:00
21°
1021.5 hPa 0.2 mm 15.2°
1
16%
 04:42     22:28    Daglengte: 17:46 Woensdag 01 Aug
03:00
17°
1022.0 hPa   13.7°
1
8%
09:00
20°
1022.0 hPa   14.2°
2
12%
15:00
24°
1021.5 hPa 0.1 mm 13.5°
1
12%
21:00
21°
1021.0 hPa 0.2 mm 15.0°
1
18%
 04:45     22:25    Daglengte: 17:40 Donderdag 02 Aug
03:00
17°
1021.4 hPa   14.1°
1
13%
09:00
19°
1021.6 hPa 0.1 mm 14.1°
2
17%
15:00
23°
1021.1 hPa 0.5 mm 13.5°
2
21%
21:00
20°
1020.4 hPa 0.5 mm 14.6°
1
33%
 04:48     22:22    Daglengte: 17:34 Vrijdag 03 Aug
03:00
16°
1020.1 hPa 0.4 mm 13.7°
2
26%
09:00
19°
1019.8 hPa 0.3 mm 14.1°
2
20%
15:00
23°
1019.3 hPa 0.5 mm 13.6°
2
17%
21:00
20°
1018.8 hPa 0.5 mm 14.1°
1
22%
 04:51     22:19    Daglengte: 17:28 Zaterdag 04 Aug
03:00
16°
1019.1 hPa 0.4 mm 12.8°
1
19%
09:00
18°
1019.5 hPa 1.3 mm 12.7°
1
21%
15:00
21°
1019.6 hPa 0.3 mm 11.1°
2
18%
21:00
19°
1019.4 hPa   12.0°
1
8%
 04:54     22:15    Daglengte: 17:21 Zondag 05 Aug
03:00
15°
1019.9 hPa   11.2°
1
10%
09:00
17°
1019.9 hPa 0.3 mm 11.6°
1
19%
15:00
22°
1019.4 hPa 0.4 mm 11.1°
2
22%
  CAPE Lifted Index Hail Supercell Tornado SRH 3km CL BTM PRES CL TOP PRES Swiss DWD icon SMHI TS
 04:08     23:03    Daglengte: 18:55 Vandaag
17:00 927 J/kg -3.4 K 0 % 0 % 0 % 0 m²/s² 0 0 -3.1 95
18:00 498 J/kg -1.8 K 0 % 0 % 0 % 0 m²/s² 0 0 -1.59 95
19:00 553 J/kg -2.2 K 0 % 0 % 0 % 0 m²/s² 0 0 -1.84 95
20:00 764 J/kg -3.7 K 0 % 0 % 0 % 0 m²/s² 0 0 -3.4 80
21:00 780 J/kg -3.3 K 0 % 0 % 0 % 0 m²/s² 0 0 -2.52 80
22:00 713 J/kg -3.2 K 0 % 0 % 0 % 0 m²/s² 0 0 -2.42 80
23:00 1095 J/kg -3.9 K 0 % 0 % 0 % 0 m²/s² 0 0 -3.63 3
 04:11     23:00    Daglengte: 18:49 Morgen
00:00 1229 J/kg -4.1 K 0 % 0 % 0 % 0 m²/s² 0 0 -2.93 3
01:00 976 J/kg -3.5 K 0 % 0 % 0 % 0 m²/s² 0 0 -2.39 2
02:00 745 J/kg -3.6 K 0 % 0 % 0 % 0 m²/s² 0 0 -2.52 80
03:00 475 J/kg -3.2 K 0 % 0 % 0 % 0 m²/s² 0 0 -2.39 2
04:00 178 J/kg -1.8 K 0 % 0 % 0 % 0 m²/s² 0 0 -0.99 2
05:00 0 J/kg -0.2 K 0 % 0 % 0 % 0 m²/s² 0 0 0.85 3
06:00 0 J/kg 0.0 K 0 % 0 % 0 % 0 m²/s² 0 0 1.5 3
07:00 0 J/kg -0.5 K 0 % 0 % 0 % 0 m²/s² 0 0 1.24 3
08:00 30 J/kg -1.0 K 0 % 0 % 0 % 0 m²/s² 0 0 0.8 3
09:00 275 J/kg -0.7 K 0 % 0 % 0 % 0 m²/s² 0 0 1.01 2
10:00 640 J/kg -1.7 K 0 % 0 % 0 % 0 m²/s² 0 0 0.28 2
11:00 985 J/kg -2.8 K 0 % 0 % 0 % 0 m²/s² 0 0 -0.88 3
12:00 1033 J/kg -3.3 K 0 % 0 % 0 % 0 m²/s² 0 0 -0.99 2
13:00 960 J/kg -3.3 K 0 % 0 % 0 % 0 m²/s² 0 0 -0.6 2
14:00 941 J/kg -3.3 K 0 % 0 % 0 % 0 m²/s² 0 0 -0.27 2
15:00 1020 J/kg -4.2 K 0 % 0 % 0 % 0 m²/s² 0 0 -3.03 80
16:00 923 J/kg -3.6 K 0 % 0 % 0 % 0 m²/s² 0 0 -2.58 2
17:00 1211 J/kg -4.2 K 0 % 0 % 0 % 0 m²/s² 0 0 -3.33 80
18:00 942 J/kg -3.0 K 0 % 0 % 0 % 0 m²/s² 0 0 -2.13 2
19:00 862 J/kg -2.4 K 0 % 0 % 0 % 0 m²/s² 0 0 -1.23 2
20:00 583 J/kg -1.7 K 0 % 0 % 0 % 0 m²/s² 0 0 -0.53 2
21:00 683 J/kg -2.2 K 0 % 0 % 0 % 0 m²/s² 0 0 -1.3 2
22:00 581 J/kg -1.9 K 0 % 0 % 0 % 0 m²/s² 0 0 -1.24 3
23:00 401 J/kg -1.6 K 0 % 0 % 0 % 0 m²/s² 0 0 -0.58 3
 04:14     22:57    Daglengte: 18:43 Maandag 23 Jul
00:00 209 J/kg -1.0 K 0 % 0 % 0 % 0 m²/s² 0 0 0.17 3
01:00 11 J/kg -1.2 K 0 % 0 % 0 % 0 m²/s² 0 0 -0.15 80
02:00 0 J/kg -1.8 K 0 % 0 % 0 % 0 m²/s² 0 0 -0.99 95
03:00 0 J/kg -1.5 K 0 % 0 % 0 % 0 m²/s² 0 0 -0.33 80
04:00 0 J/kg -1.7 K 0 % 0 % 0 % 0 m²/s² 0 0 -0.47 95
05:00 0 J/kg -1.1 K 0 % 0 % 0 % 0 m²/s² 0 0 0.22 80
06:00 25 J/kg -1.1 K 0 % 0 % 0 % 0 m²/s² 0 0 0.46 2
07:00 333 J/kg -1.5 K 0 % 0 % 0 % 0 m²/s² 0 0 -0.24 3
08:00 558 J/kg -2.1 K 0 % 0 % 0 % 0 m²/s² 0 0 -0.66 2
09:00 463 J/kg -1.6 K 0 % 0 % 0 % 0 m²/s² 0 0 -0.1 1
10:00 268 J/kg -0.4 K 0 % 0 % 0 % 0 m²/s² 0 0 1.16 1
11:00 112 J/kg 0.4 K 0 % 0 % 0 % 0 m²/s² 0 0 2.26 3
12:00 46 J/kg 1.1 K 0 % 0 % 0 % 0 m²/s² 0 0 3.29 3
13:00 18 J/kg 1.6 K 0 % 0 % 0 % 0 m²/s² 0 0 4.36 2
14:00 4 J/kg 2.0 K 0 % 0 % 0 % 0 m²/s² 0 0 5.18 0
15:00 0 J/kg 2.3 K 0 % 0 % 0 % 0 m²/s² 0 0 6.05 0
16:00 0 J/kg 2.5 K 0 % 0 % 0 % 0 m²/s² 0 0 6.64 0
17:00 0 J/kg 2.7 K 0 % 0 % 0 % 0 m²/s² 0 0 6.96 3
18:00 0 J/kg 3.2 K 0 % 0 % 0 % 0 m²/s² 0 0 7.34 3
19:00 0 J/kg 3.8 K 0 % 0 % 0 % 0 m²/s² 0 0 8.06 0
20:00 0 J/kg 4.4 K 0 % 0 % 0 % 0 m²/s² 0 0 8.78 1
21:00 0 J/kg 4.3 K 0 % 0 % 0 % 0 m²/s² 0 0 8.68 2
22:00 0 J/kg 2.9 K 0 % 0 % 0 % 0 m²/s² 0 0 6.53 3
23:00 0 J/kg 1.0 K 0 % 0 % 0 % 0 m²/s² 0 0 3.76 3
 04:17     22:54    Daglengte: 18:37 Dinsdag 24 Jul
00:00 0 J/kg -0.8 K 0 % 0 % 0 % 0 m²/s² 0 0 1.6 3
01:00 0 J/kg -1.5 K 0 % 0 % 0 % 0 m²/s² 0 0 0.9 3
02:00 0 J/kg -2.5 K 0 % 0 % 0 % 0 m²/s² 0 0 -0.04 1
03:00 0 J/kg -3.2 K 0 % 0 % 0 % 0 m²/s² 0 0 -0.59 2
04:00 4 J/kg -3.1 K 0 % 0 % 0 % 0 m²/s² 0 0 -0.49 3
05:00 0 J/kg -3.0 K 0 % 0 % 0 % 0 m²/s² 0 0 0.45 3
06:00 2 J/kg -3.0 K 0 % 0 % 0 % 0 m²/s² 0 0 -0.24 3
07:00 9 J/kg -2.6 K 0 % 0 % 0 % 0 m²/s² 0 0 0.25 3
08:00 28 J/kg -2.5 K 0 % 0 % 0 % 0 m²/s² 0 0 1.52 2
09:00 46 J/kg -2.3 K 0 % 0 % 0 % 0 m²/s² 0 0 1.33 3
10:00 2 J/kg -2.6 K 0 % 0 % 0 % 0 m²/s² 0 0 -0.23 3
11:00 0 J/kg -2.5 K 0 % 0 % 0 % 0 m²/s² 0 0 0.32 0
12:00 10 J/kg -2.5 K 0 % 0 % 0 % 0 m²/s² 0 0 0.26 0
13:00 24 J/kg -2.2 K 0 % 0 % 0 % 0 m²/s² 0 0 0.32 1
14:00 9 J/kg -1.7 K 0 % 0 % 0 % 0 m²/s² 0 0 0.97 0
15:00 8 J/kg -1.4 K 0 % 0 % 0 % 0 m²/s² 0 0 1.54 2
16:00 0 J/kg 0.0 K 0 % 0 % 0 % 0 m²/s² 0 0 13.83
Temp Baro Wind Neerslag
  EWN Forecast EWN WRFDA DWD ICON FMI HIRLAM MET Norway GFS
 04:08     23:03    Daglengte: 18:55 Vandaag
18:00 23.7° 1004.2 hPa 1.8 m/s 3.7 mm 20.0° 1005.6 hPa 2.5 m/s 15.7 mm 22.7° 1004.0 hPa 0.5 m/s 5.5 mm 23.0° 1004.1 hPa 0.9 m/s 0.0 mm 26.4° 1004.4 hPa 4.5 m/s 21.4° 1003.7 hPa 0.7 m/s
21:00 22.1° 1003.9 hPa 2.1 m/s 7.0 mm 21.0° 1004.3 hPa 1.2 m/s 44.6 mm 21.4° 1003.6 hPa 1.0 m/s 1.9 mm 21.4° 1003.8 hPa 1.1 m/s 0.0 mm 24.3° 1004.0 hPa 3.2 m/s 0.0 mm 20.4° 1003.2 hPa 1.3 m/s
 04:11     23:00    Daglengte: 18:49 Morgen
00:00 20.4° 1003.6 hPa 1.7 m/s 0.0 mm 19.8° 1003.8 hPa 0.6 m/s 45.3 mm 19.8° 1003.4 hPa 1.3 m/s 0.1 mm 18.1° 1003.1 hPa 0.5 m/s 0.0 mm 21.8° 1003.7 hPa 2.2 m/s 0.0 mm 18.4° 1003.0 hPa 1.9 m/s
03:00 19.5° 1003.2 hPa 1.4 m/s 0.0 mm 18.7° 1003.4 hPa 2.9 m/s 45.5 mm 18.8° 1003.4 hPa 1.2 m/s 0.4 mm 17.6° 1002.9 hPa 0.8 m/s 0.0 mm 20.8° 1002.9 hPa 1.1 m/s 0.0 mm 17.3° 1003.0 hPa 2.2 m/s
06:00 19.4° 1003.1 hPa 2.0 m/s 0.0 mm 16.4° 1003.6 hPa 2.1 m/s 45.5 mm 18.9° 1002.8 hPa 1.7 m/s 0.0 mm 18.1° 1003.0 hPa 0.6 m/s 0.0 mm 20.6° 1003.0 hPa 2.3 m/s 0.0 mm 17.4° 1002.9 hPa 2.2 m/s
09:00 20.7° 1003.3 hPa 2.8 m/s 0.0 mm 18.8° 1003.9 hPa 4.2 m/s 45.5 mm 20.6° 1003.3 hPa 2.8 m/s 0.2 mm 21.3° 1002.8 hPa 0.9 m/s 0.0 mm 20.9° 1003.2 hPa 3.7 m/s 0.0 mm 18.8° 1003.3 hPa 2.8 m/s
12:00 22.5° 1003.7 hPa 3.6 m/s 0.0 mm 22.1° 1004.2 hPa 3.4 m/s 45.7 mm 22.3° 1003.4 hPa 3.8 m/s 0.1 mm 21.8° 1003.0 hPa 2.2 m/s 0.0 mm 24.4° 1003.7 hPa 4.4 m/s 0.0 mm 21.6° 1003.6 hPa 3.5 m/s
15:00 23.9° 1004.2 hPa 4.1 m/s 3.3 mm 22.5° 1004.4 hPa 6.9 m/s 46.0 mm 22.9° 1003.6 hPa 3.7 m/s 0.3 mm 24.8° 1003.6 hPa 2.5 m/s 0.0 mm 25.8° 1004.2 hPa 5.2 m/s 0.0 mm 21.8° 1003.7 hPa 4.2 m/s
18:00 23.7° 1004.4 hPa 4.4 m/s 6.8 mm 21.7° 1004.8 hPa 5.2 m/s 47.4 mm 22.2° 1003.7 hPa 4.4 m/s 0.3 mm 25.9° 1004.1 hPa 3.3 m/s 0.0 mm 25.3° 1004.4 hPa 5.7 m/s 0.0 mm 21.3° 1004.5 hPa 5.0 m/s
21:00 22.1° 1005.0 hPa 4.1 m/s 6.9 mm 21.5° 1005.2 hPa 3.9 m/s 48.4 mm 20.6° 1004.2 hPa 3.9 m/s 0.4 mm 23.2° 1004.6 hPa 3.0 m/s 0.0 mm 23.4° 1005.0 hPa 5.8 m/s 0.0 mm 19.4° 1004.8 hPa 5.5 m/s
 04:14     22:57    Daglengte: 18:43 Maandag 23 Jul
00:00 19.5° 1006.1 hPa 3.6 m/s 0.0 mm 19.7° 1005.8 hPa 4.8 m/s 48.6 mm 19.2° 1005.0 hPa 3.8 m/s 0.0 mm 18.9° 1006.0 hPa 1.5 m/s 0.0 mm 20.8° 1006.2 hPa 3.9 m/s 0.0 mm 17.1° 1005.7 hPa 5.9 m/s
03:00 18.6° 1006.7 hPa 3.6 m/s 0.0 mm 17.9° 1005.8 hPa 4.9 m/s 48.7 mm 18.2° 1005.3 hPa 3.6 m/s 2.3 mm 17.6° 1007.1 hPa 2.5 m/s 0.0 mm 19.8° 1006.8 hPa 3.5 m/s 0.0 mm 16.1° 1006.7 hPa 5.7 m/s
06:00 18.7° 1007.1 hPa 3.3 m/s 0.0 mm 18.8° 1006.5 hPa 5.0 m/s 48.7 mm 18.8° 1006.1 hPa 3.5 m/s 2.6 mm 16.9° 1007.5 hPa 2.0 m/s 0.0 mm 19.9° 1007.0 hPa 3.3 m/s 0.0 mm 16.3° 1007.7 hPa 5.4 m/s
09:00 21.6° 1008.0 hPa 3.5 m/s 0.0 mm 21.5° 1007.9 hPa 3.5 m/s 48.7 mm 21.7° 1006.9 hPa 4.0 m/s 0.0 mm 19.9° 1008.1 hPa 1.6 m/s 0.0 mm 23.4° 1008.0 hPa 4.0 m/s 0.0 mm 18.8° 1008.8 hPa 4.4 m/s
12:00 25.0° 1009.1 hPa 3.9 m/s 0.0 mm 21.9° 1009.5 hPa 3.3 m/s 48.7 mm 23.5° 1008.5 hPa 4.0 m/s 0.0 mm 28.4° 1009.1 hPa 4.4 m/s 0.0 mm 21.6° 1009.8 hPa 3.9 m/s
15:00 26.2° 1009.9 hPa 3.6 m/s 0.0 mm 21.8° 1010.7 hPa 2.6 m/s 48.7 mm 24.4° 1009.5 hPa 3.6 m/s 0.0 mm 29.5° 1009.9 hPa 4.5 m/s 0.0 mm 22.6° 1010.5 hPa 3.9 m/s
18:00 26.3° 1010.2 hPa 2.4 m/s 0.0 mm 21.8° 1011.0 hPa 2.1 m/s 48.7 mm 23.8° 1010.3 hPa 1.9 m/s 0.0 mm 28.8° 1009.8 hPa 3.6 m/s 0.0 mm 20.9° 1011.3 hPa 4.0 m/s
21:00 24.5° 1011.1 hPa 2.5 m/s 0.0 mm 21.6° 1011.0 hPa 1.4 m/s 48.7 mm 22.3° 1011.4 hPa 1.6 m/s 0.0 mm 26.4° 1011.0 hPa 3.0 m/s 0.0 mm 18.2° 1012.3 hPa 2.9 m/s
 04:17     22:54    Daglengte: 18:37 Dinsdag 24 Jul
00:00 21.6° 1012.6 hPa 1.3 m/s 0.0 mm 19.6° 1011.9 hPa 1.7 m/s 48.7 mm 19.8° 1012.6 hPa 1.5 m/s 0.0 mm 23.5° 1012.8 hPa 0.4 m/s 0.0 mm 15.3° 1013.5 hPa 1.8 m/s
03:00 19.7° 1012.8 hPa 1.2 m/s 0.0 mm 19.0° 1011.9 hPa 1.6 m/s 48.7 mm 18.0° 1013.1 hPa 1.3 m/s 0.0 mm 21.5° 1012.9 hPa 1.0 m/s 0.0 mm 14.9° 1013.7 hPa 1.5 m/s
06:00 18.0° 1012.5 hPa 1.0 m/s 0.0 mm 20.0° 1012.0 hPa 1.1 m/s 48.7 mm 17.4° 1013.6 hPa 1.1 m/s 0.0 mm 17.8° 1012.3 hPa 0.5 m/s 0.0 mm 15.8° 1014.4 hPa 1.0 m/s
09:00 23.1° 1013.0 hPa 1.4 m/s 0.0 mm 20.9° 1012.4 hPa 1.9 m/s 48.9 mm 20.8° 1014.2 hPa 0.4 m/s 0.0 mm 23.6° 1012.8 hPa 1.5 m/s 0.0 mm 19.6° 1014.5 hPa 0.8 m/s
12:00 24.5° 1013.0 hPa 1.9 m/s 0.0 mm 23.3° 1012.8 hPa 1.8 m/s 48.9 mm 24.2° 1014.4 hPa 0.9 m/s 0.0 mm 25.0° 1012.8 hPa 2.4 m/s 24.3° 1014.7 hPa 1.5 m/s
15:00 25.9° 1012.9 hPa 2.9 m/s 0.0 mm 22.1° 1012.8 hPa 3.7 m/s 48.9 mm 26.2° 1013.5 hPa 1.0 m/s 0.0 mm 26.4° 1012.7 hPa 3.2 m/s 23.6° 1014.4 hPa 3.4 m/s
18:00 24.4° 1013.0 hPa 2.7 m/s 0.0 mm 24.6° 1012.9 hPa 2.6 m/s 21.7° 1014.1 hPa 3.7 m/s 0.0 mm
21:00 23.3° 1013.1 hPa 2.3 m/s 0.0 mm 23.7° 1013.0 hPa 2.3 m/s 19.3° 1014.5 hPa 2.4 m/s 0.0 mm
 04:20     22:51    Daglengte: 18:31 Woensdag 25 Jul
00:00 21.0° 1013.9 hPa 2.0 m/s 0.0 mm 21.4° 1013.7 hPa 2.0 m/s 16.7° 1015.6 hPa 1.4 m/s 0.0 mm
03:00 18.8° 1014.5 hPa 1.6 m/s 0.0 mm 19.0° 1014.4 hPa 1.7 m/s 16.0° 1016.1 hPa 0.5 m/s 0.0 mm
06:00 21.0° 1015.1 hPa 1.0 m/s 0.0 mm 21.4° 1015.0 hPa 1.1 m/s 16.7° 1016.5 hPa 0.7 m/s 0.0 mm
09:00 23.4° 1015.6 hPa 0.5 m/s 0.0 mm 23.7° 1015.5 hPa 0.4 m/s 20.4° 1016.9 hPa 1.4 m/s 0.0 mm
12:00 25.2° 1015.5 hPa 1.8 m/s 0.0 mm 25.3° 1015.4 hPa 1.8 m/s 23.9° 1017.2 hPa 1.8 m/s 0.0 mm
15:00 26.7° 1015.3 hPa 3.0 m/s 0.0 mm 26.9° 1015.2 hPa 3.1 m/s 24.5° 1016.7 hPa 2.2 m/s 0.0 mm
18:00 25.5° 1015.7 hPa 2.0 m/s 0.0 mm 25.7° 1015.7 hPa 1.9 m/s 22.7° 1016.6 hPa 3.0 m/s 0.0 mm
21:00 24.1° 1016.2 hPa 0.8 m/s 0.0 mm 24.5° 1016.1 hPa 0.7 m/s 19.6° 1017.0 hPa 1.9 m/s 0.0 mm
 04:23     22:47    Daglengte: 18:24 Donderdag 26 Jul
00:00 21.5° 1016.8 hPa 1.3 m/s 0.0 mm 21.9° 1016.7 hPa 1.4 m/s 17.0° 1017.3 hPa 1.1 m/s 0.0 mm
03:00 19.1° 1017.3 hPa 1.9 m/s 0.0 mm 19.3° 1017.3 hPa 2.0 m/s 16.8° 1017.8 hPa 1.2 m/s 0.0 mm
06:00 21.6° 1018.0 hPa 1.2 m/s 0.0 mm 22.0° 1018.0 hPa 1.2 m/s 17.1° 1018.2 hPa 1.0 m/s 0.0 mm
09:00 24.4° 1018.7 hPa 0.6 m/s 0.0 mm 24.7° 1018.7 hPa 0.5 m/s 20.9° 1018.6 hPa 1.2 m/s 0.0 mm
12:00 26.6° 1018.7 hPa 2.0 m/s 0.0 mm 26.8° 1018.8 hPa 2.0 m/s 24.5° 1018.7 hPa 1.6 m/s 0.0 mm
15:00 28.5° 1018.8 hPa 3.6 m/s 0.0 mm 28.9° 1018.8 hPa 3.6 m/s 24.1° 1018.9 hPa 3.4 m/s 0.0 mm
18:00 26.1° 1019.4 hPa 2.7 m/s 0.0 mm 26.4° 1019.3 hPa 2.7 m/s 22.6° 1019.5 hPa 2.4 m/s 0.0 mm
21:00 23.7° 1019.9 hPa 1.7 m/s 0.0 mm 24.0° 1019.9 hPa 1.8 m/s 20.1° 1020.4 hPa 0.9 m/s 0.0 mm
 04:26     22:44    Daglengte: 18:18 Vrijdag 27 Jul
00:00 21.5° 1020.7 hPa 1.7 m/s 0.0 mm 21.9° 1020.6 hPa 1.8 m/s 17.2° 1022.0 hPa 0.3 m/s 0.0 mm
03:00 19.6° 1021.5 hPa 1.8 m/s 0.0 mm 19.8° 1021.3 hPa 1.8 m/s 16.9° 1023.1 hPa 1.4 m/s 0.0 mm
06:00 22.6° 1022.0 hPa 1.5 m/s 0.0 mm 23.1° 1021.8 hPa 1.5 m/s 17.3° 1024.2 hPa 1.9 m/s 0.0 mm
09:00 26.0° 1022.5 hPa 1.2 m/s 0.0 mm 26.4° 1022.2 hPa 1.1 m/s 21.4° 1025.2 hPa 1.8 m/s 0.0 mm
12:00 26.9° 1022.5 hPa 2.2 m/s 0.0 mm 27.1° 1022.2 hPa 2.2 m/s 24.4° 1025.7 hPa 3.3 m/s 0.0 mm
15:00 27.6° 1022.6 hPa 3.3 m/s 0.0 mm 27.9° 1022.3 hPa 3.2 m/s 24.3° 1025.9 hPa 4.9 m/s 0.0 mm
18:00 26.7° 1022.5 hPa 2.6 m/s 0.0 mm 26.9° 1022.2 hPa 2.4 m/s 23.9° 1025.8 hPa 4.8 m/s 0.0 mm
21:00 25.6° 1022.4 hPa 1.7 m/s 0.0 mm 25.9° 1022.1 hPa 1.5 m/s 22.0° 1026.2 hPa 4.2 m/s 0.0 mm
 04:29     22:41    Daglengte: 18:12 Zaterdag 28 Jul
00:00 23.5° 1022.7 hPa 2.3 m/s 0.0 mm 23.8° 1022.4 hPa 2.1 m/s 20.4° 1027.1 hPa 3.6 m/s 0.0 mm
03:00 21.5° 1023.0 hPa 2.8 m/s 0.0 mm 21.7° 1022.6 hPa 2.8 m/s 19.4° 1027.4 hPa 2.9 m/s 0.0 mm
06:00 23.5° 1022.8 hPa 2.8 m/s 0.0 mm 23.9° 1022.4 hPa 2.8 m/s 19.6° 1027.7 hPa 3.0 m/s 0.0 mm
09:00 25.7° 1022.6 hPa 2.8 m/s 0.0 mm 26.0° 1022.1 hPa 2.8 m/s 22.7° 1027.9 hPa 3.1 m/s 0.0 mm
12:00 25.5° 1022.4 hPa 2.8 m/s 0.0 mm 25.4° 1021.9 hPa 2.8 m/s 26.3° 1027.9 hPa 3.1 m/s 0.0 mm
15:00 25.2° 1022.1 hPa 2.8 m/s 0.1 mm 24.9° 1021.6 hPa 2.8 m/s 28.0° 1027.1 hPa 2.5 m/s 0.1 mm
21:00 23.5° 1020.9 hPa 3.6 m/s 2.6 mm 23.3° 1020.4 hPa 3.7 m/s 25.6° 1026.7 hPa 3.0 m/s 2.6 mm
 04:32     22:38    Daglengte: 18:06 Zondag 29 Jul
03:00 20.2° 1020.4 hPa 3.9 m/s 0.0 mm 20.2° 1019.7 hPa 4.0 m/s 20.7° 1027.7 hPa 3.4 m/s 0.0 mm
09:00 21.8° 1020.5 hPa 3.4 m/s 0.0 mm 21.6° 1019.7 hPa 3.5 m/s 23.4° 1028.9 hPa 1.8 m/s 0.0 mm
15:00 25.5° 1020.0 hPa 3.7 m/s 0.0 mm 25.4° 1019.2 hPa 3.8 m/s 27.1° 1028.7 hPa 2.8 m/s 0.0 mm
21:00 22.7° 1021.2 hPa 2.1 m/s 0.0 mm 22.5° 1020.6 hPa 2.0 m/s 24.4° 1027.8 hPa 3.2 m/s 0.0 mm
 04:35     22:35    Daglengte: 18:00 Maandag 30 Jul
03:00 19.5° 1021.8 hPa 2.7 m/s 0.9 mm 19.4° 1021.3 hPa 2.7 m/s 20.4° 1027.8 hPa 2.5 m/s 0.9 mm
09:00 22.6° 1022.0 hPa 2.3 m/s 6.6 mm 22.6° 1021.5 hPa 2.3 m/s 22.5° 1027.5 hPa 2.0 m/s 6.6 mm
15:00 24.7° 1021.7 hPa 2.2 m/s 0.0 mm 24.4° 1021.3 hPa 2.3 m/s 28.0° 1025.7 hPa 0.7 m/s 0.0 mm
21:00 22.2° 1020.9 hPa 1.8 m/s 0.0 mm 22.1° 1020.5 hPa 1.8 m/s 22.9° 1024.8 hPa 2.3 m/s 0.0 mm
 04:38     22:32    Daglengte: 17:54 Dinsdag 31 Jul
03:00 18.5° 1020.9 hPa 0.9 m/s 0.0 mm 18.3° 1020.5 hPa 0.9 m/s 20.2° 1025.2 hPa 1.0 m/s 0.0 mm
09:00 20.5° 1025.2 hPa 1.3 m/s 0.0 mm 20.5° 1025.2 hPa 1.3 m/s 0.0 mm
15:00 23.8° 1022.1 hPa 1.7 m/s 0.4 mm
21:00 21.2° 1021.5 hPa 0.9 m/s 0.2 mm
 04:42     22:28    Daglengte: 17:46 Woensdag 01 Aug
03:00 16.7° 1022.0 hPa 1.4 m/s 0.0 mm
09:00 19.7° 1022.0 hPa 1.6 m/s 0.0 mm
15:00 23.9° 1021.5 hPa 1.4 m/s 0.1 mm
21:00 21.1° 1021.0 hPa 0.5 m/s 0.2 mm
 04:45     22:25    Daglengte: 17:40 Donderdag 02 Aug
03:00 16.8° 1021.4 hPa 1.3 m/s 0.0 mm
09:00 19.2° 1021.6 hPa 1.6 m/s 0.1 mm
15:00 23.2° 1021.1 hPa 1.7 m/s 0.5 mm
21:00 20.1° 1020.4 hPa 1.2 m/s 0.5 mm
 04:48     22:22    Daglengte: 17:34 Vrijdag 03 Aug
03:00 16.4° 1020.1 hPa 1.6 m/s 0.4 mm
09:00 19.2° 1019.8 hPa 1.9 m/s 0.3 mm
15:00 23.0° 1019.3 hPa 1.9 m/s 0.5 mm
21:00 19.9° 1018.8 hPa 1.5 m/s 0.5 mm
 04:51     22:19    Daglengte: 17:28 Zaterdag 04 Aug
03:00 15.7° 1019.1 hPa 1.0 m/s 0.4 mm
09:00 17.9° 1019.5 hPa 1.1 m/s 1.3 mm
15:00 21.3° 1019.6 hPa 1.6 m/s 0.3 mm
21:00 18.9° 1019.4 hPa 1.2 m/s 0.0 mm
 04:54     22:15    Daglengte: 17:21 Zondag 05 Aug
03:00 14.8° 1019.9 hPa 1.1 m/s 0.0 mm
09:00 17.5° 1019.9 hPa 1.4 m/s 0.3 mm
15:00 21.7° 1019.4 hPa 1.8 m/s 0.4 mm
FMI Hirlam - 7.5 km EWN WRFDA - 12 km DWD ICON - 7 km GFS - 25 km Basiskaart






























































Updatetijd (Europe/Amsterdam) Resolutie Lengte Stap
FMI Hirlam 13:00, 19:00, 01:00, 07:00 7.5 km 49h 1h
EWN WRFDA 09:30, 15:30, 21:30, 03:30 12 km 73h 1h
DWD ICON 12:45, 18:45, 00:45, 06:45 7 km 75h 1h
GFS 15:15, 21:15, 03:15, 09:15 25 km 237h 3h
30+ mm
25-30 mm
20-25 mm
15-20 mm
10-15 mm
6-10 mm
4-6 mm
2-4 mm
1-2 mm
0.5-1 mm
0.2-0.5 mm
0.1-0.2 mm
30+ mm
25-30 mm
20-25 mm
15-20 mm
10-15 mm
6-10 mm
4-6 mm
2-4 mm
1-2 mm
0.5-1 mm
0.2-0.5 mm
0.1-0.2 mm
Sneeuwval
Natte sneeuw
Hagel
Vorst
30+ mm
25-30 mm
20-25 mm
15-20 mm
10-15 mm
6-10 mm
4-6 mm
2-4 mm
1-2 mm
0.5-1 mm
0.2-0.5 mm
0.1-0.2 mm
Sneeuwval
Natte sneeuw
Hagel
Vorst
Onweer
50 mm
40 mm
30 mm
26 mm
22 mm
18 mm
14 mm
10 mm
9 mm
8 mm
7 mm
6 mm
5 mm
4.5 mm
4 mm
3.5 mm
3 mm
2.5 mm
2 mm
1.5 mm
1 mm
0.8 mm
0.6 mm
0.4 mm
0.2 mm
0.05 mm
35°
30°
25°
20°
15°
10°
-5°
-10°
-15°
-20°
-25°
-30°
-35°
120> km/h
105 km/h
90 km/h
75 km/h
60 km/h
50 km/h
40 km/h
30 km/h
20 km/h
10 km/h
0 km/h
2600 J/kg
2400 J/kg
2200 J/kg
2000 J/kg
1800 J/kg
1600 J/kg
1400 J/kg
1200 J/kg
1000 J/kg
800 J/kg
600 J/kg
400 J/kg
200 J/kg
70 dBZ
65 dBZ
60 dBZ
55 dBZ
50 dBZ
45 dBZ
40 dBZ
35 dBZ
30 dBZ
25 dBZ
20 dBZ
15 dBZ
10 dBZ
5 dBZ
-1 K
-2 K
-3 K
-4 K
-5 K
-6 K
-7 K
-8 K
-9 K
950 m²/s²
900 m²/s²
850 m²/s²
800 m²/s²
750 m²/s²
700 m²/s²
650 m²/s²
600 m²/s²
550 m²/s²
500 m²/s²
450 m²/s²
400 m²/s²
350 m²/s²
300 m²/s²
250 m²/s²
200 m²/s²
150 m²/s²
100 m²/s²
46 m/s
44 m/s
42 m/s
40 m/s
38 m/s
36 m/s
34 m/s
32 m/s
30 m/s
28 m/s
26 m/s
24 m/s
22 m/s
20 m/s
16 m/s
12 m/s
8 m/s
4 m/s
30 m/s
28 m/s
26 m/s
24 m/s
22 m/s
20 m/s
18 m/s
16 m/s
14 m/s
12 m/s
10 m/s
8 m/s
6 m/s
4 m/s
2 m/s
3.0
2.8
2.6
2.4
2.2
2.0
1.8
1.6
1.4
1.2
1.0
0.8
0.6
0.4
0.2
15
14
13
12
11
10
9
8
7
6
5
4
3
2
1
90%
80%
70%
60%
50%
40%
30%
20%
10%
42
40
38
36
34
32
30
28
26
24
22
20
18
16
14
12
90+ cm
80-90 cm
70-80 cm
60-70 cm
50-60 cm
40-50 cm
30-40 cm
20-30 cm
10-20 cm
1-10 cm
Sneeuwval
Natte sneeuw
Regen
>120 mm
115 mm
110 mm
105 mm
100 mm
95 mm
90 mm
85 mm
80 mm
75 mm
70 mm
65 mm
60 mm
55 mm
50 mm
45 mm
45 mm
40 mm
35 mm
30 mm
25 mm
20 mm
15 mm
10 mm
5 mm
0.1 mm
960 hPa
880 hPa
800 hPa
720 hPa
640 hPa
560 hPa
584 gpdm
568 gpdm
552 gpdm
536 gpdm
520 gpdm
504 gpdm
488 gpdm
Extreem zwaar Noodweer Kans op onweer
15% 15% 5% 50% 15%

Dag




Kaart






35°
30°
25°
20°
15°
10°
-5°
-10°
-15°
-20°
-25°
-30°
-35°
120> km/h
105 km/h
90 km/h
75 km/h
60 km/h
50 km/h
40 km/h
30 km/h
20 km/h
10 km/h
0 km/h
Extreem zwaar Noodweer Kans op onweer
15% 15% 5% 50% 15%
>120 mm
115 mm
110 mm
105 mm
100 mm
95 mm
90 mm
85 mm
80 mm
75 mm
70 mm
65 mm
60 mm
55 mm
50 mm
45 mm
45 mm
40 mm
35 mm
30 mm
25 mm
20 mm
15 mm
10 mm
5 mm
0.1 mm
Onweer risico kaarten - De groene en gele kleur geeft de kans op onweer aan binnen 40 km van een punt. Oranje, rood en violet hebben hetzelfde niveau zoals je het ziet op estofex.org waaronder ook de kans op hagel en supercells.

dBZ - dBZ staat voor decibel ten opzichte van Z.

Cape - Convective available potential energy (CAPE), is de totale hoeveelheid energie die een luchtpakketje nodig heeft om zover mogelijk te stijgen in de atmosfeer.

K Index - K-Index wordt berekend door de Vertical Totals (VT) en het verschil tussen de 850 hPa temperatuur en de 700 hPa dauwpuntsdepressie (Tdd 700) bij elkaar op te tellen.

TT Index - Convectie index wordt gebruikt voor het voorspellen van zware buien of onweer.

WRF - The Weather Research and Forecasting (WRF) is een volgende generatie mesoscale numeriek weersvoorspelling systeem ontworpen om zowel de operationele planning als het atmosferisch onderzoek te dienen. WRF is a cooperatie tussen het National Center for Atmospheric Research (NCAR), National Centers for Environmental Prediction (NCEP), Forecast Systems Laboratory (FSL), Air Force Weather Agency (AFWA), Naval Research Laboratory, University of Oklahoma, en de Federal Aviation Administration (FAA). Deze software draait op onze server.

WRFDA - Een meer geavanceerde versie van WRF

Arome - Het 2.5 km Arome model. Verzorgd door het Noors Meteorologisch Instituut.

MET Norway - De proff-default 4km meteorological data is een beste keus selectie van meteorologische modellen gebruikt door met.no die zijn geïnterpoleerd tot een gemeenschappelijke dataset. Verzorgd door het Noorse Meteorologisch Instituut.

SMHI - Het Hirlam model verzorgd door het Zweeds meteorologisch instituut.

FMI - Het Hirlam model verzorgd door het Fins meteorologisch instituut. Dekking alleen Finland.

GFS - Het Global Forecast Systeem (GFS) is een wereldwijd numerieke weersvoorspelling computermodel, gerund door NOAA.

GEM-GDPS - Het GEM-GDPS is a wereldwijd numeriek weersvoorspelling computermodel verzorgd door het Canadees Meteorologisch Centrum.

Credits/Info: Dank aan Stefan Gofferje van sääkeskus.fi voor enkele formules van GrADS. Info: Wikipedia.

Betrouwbaarheid van de verwachting

NB! 2015-03-29: Rebuilding the accuracy-test!

EWNACC
Day 1 Good forecasts

Dag 1 Tmax

Dag 2 Tmax

Geladen verwachtingen TOP 50

Totaal geladen verwachtingen:
Plaats Latitude Longitude Verwachtingen Plaats Latitude Longitude Verwachtingen